Weather History for Fargo, ND

Change the Weather History Date:

Friday, November 9, 2012

  Actual Average Record
Temperature  
Mean Temperature 36 °F 33 °F  
Max Temperature 40 °F 42 °F 66 °F (2010)
Min Temperature 31 °F 24 °F -1 °F (1979)
Degree Days  
Heating Degree Days 29 32  
Month to date heating degree days 256 268  
Since 1 July heating degree days 1133 1144  
Cooling Degree Days 0 0  
Month to date cooling degree days 0 0  
Year to date cooling degree days 795 551  
Moisture  
Dew Point 28 °F    
Average Humidity 78    
Maximum Humidity 85    
Minimum Humidity 70    
Precipitation  
Precipitation 0.00 in 0.04 in 1.50 in (1977)
Month to date precipitation 0.18 0.34  
Year to date precipitation 13.74 21.12  
Snow  
Snow 0.00 in 0.20 in 5.60 in (1977)
Month to date snowfall 0.5 1.3  
Since 1 July snowfall 4.1 2.0  
Since 1 September snowfall 4.1 2.0  
Snow Depth 0.00 in    
Sea Level Pressure  
Sea Level Pressure 30.08 in    
Wind  
Wind Speed 14 mph (NE)    
Max Wind Speed 21 mph    
Max Gust Speed 28 mph    
Visibility 10 miles    
Events      
T = Trace of Precipitation, MM = Missing Value Source: NWS Daily Summary

Daily Weather History Graph

Daily Weather History Graph

Search for Another Location

Airport:

Trip Planner

Search our weather history database for the weather conditions in past years. The results will help you decide how hot, cold, wet, or windy it might be!

Date:

Astronomy

Nov. 09, 2012 Rise Set
Actual Time 7:22 AM CST 4:59 PM CST
Civil Twilight 6:49 AM CST 5:31 PM CST
Nautical Twilight 6:13 AM CST 6:08 PM CST
Astronomical Twilight 5:37 AM CST 6:43 PM CST
Moon 2:05 AM CST (11/9) 2:28 PM CST (11/9)
Length of Visible Light 10h 42m
Length of Day
9h 36m
Waning Crescent, 23% of the Moon is Illuminated
Nov 9
Waning Crescent
Nov 13
New
Nov 20
First Quarter
Nov 28
Full
Dec 6
Last Quarter

Hourly Weather History & Observations

Time (CST) Temp. Windchill Dew Point Humidity Pressure Visibility Wind Dir Wind Speed Gust Speed Precip Events Conditions
12:53 AM 32.0 °F 20.8 °F 27.0 °F 82% 30.19 in 10.0 mi North 17.3 mph - N/A   Overcast
1:50 AM 32.0 °F 21.2 °F 26.6 °F 80% 30.15 in 10.0 mi North 16.1 mph - N/A   Overcast
1:53 AM 32.0 °F 21.6 °F 27.0 °F 82% 30.18 in 10.0 mi North 15.0 mph - N/A   Overcast
2:12 AM 30.2 °F 18.9 °F 26.6 °F 86% 30.15 in 10.0 mi North 16.1 mph 23.0 mph N/A   Overcast
2:53 AM 32.0 °F 21.2 °F 26.1 °F 79% 30.18 in 10.0 mi NNE 16.1 mph 23.0 mph N/A   Overcast
3:53 AM 32.0 °F 21.2 °F 26.1 °F 79% 30.18 in 10.0 mi NNE 16.1 mph - N/A   Overcast
4:53 AM 30.9 °F 21.7 °F 26.1 °F 82% 30.17 in 10.0 mi NNE 11.5 mph 21.9 mph N/A   Overcast
5:53 AM 32.0 °F 21.2 °F 26.6 °F 80% 30.13 in 10.0 mi NNE 16.1 mph - N/A   Overcast
6:53 AM 32.0 °F 20.8 °F 26.1 °F 79% 30.14 in 10.0 mi NNE 17.3 mph - N/A   Overcast
7:53 AM 32.0 °F 20.8 °F 27.0 °F 82% 30.16 in 10.0 mi NNE 17.3 mph - N/A   Overcast
8:53 AM 34.0 °F 24.2 °F 28.0 °F 79% 30.16 in 10.0 mi NNE 15.0 mph - N/A   Overcast
9:53 AM 35.1 °F 24.5 °F 28.0 °F 76% 30.14 in 10.0 mi NE 18.4 mph - N/A   Overcast
10:53 AM 35.1 °F 25.2 °F 28.0 °F 76% 30.14 in 10.0 mi NE 16.1 mph - N/A   Overcast
11:53 AM 36.0 °F 26.7 °F 28.9 °F 76% 30.12 in 10.0 mi NE 15.0 mph - N/A   Overcast
12:53 PM 37.0 °F 27.4 °F 28.9 °F 73% 30.08 in 10.0 mi NE 17.3 mph - N/A   Overcast
1:01 PM 37.4 °F 27.5 °F 28.4 °F 70% 30.04 in 10.0 mi ENE 18.4 mph 24.2 mph N/A   Overcast
1:53 PM 37.0 °F 27.0 °F 28.9 °F 73% 30.07 in 10.0 mi ENE 18.4 mph 24.2 mph N/A   Overcast
2:53 PM 37.0 °F 28.1 °F 28.9 °F 73% 30.05 in 10.0 mi ENE 15.0 mph - N/A   Overcast
3:20 PM 37.4 °F 28.2 °F 28.4 °F 70% 30.01 in 10.0 mi ENE 16.1 mph - N/A   Overcast
3:53 PM 37.0 °F 28.5 °F 28.9 °F 73% 30.04 in 10.0 mi ENE 13.8 mph - N/A   Overcast
4:53 PM 37.0 °F 30.4 °F 28.9 °F 73% 30.04 in 10.0 mi NE 9.2 mph - N/A   Overcast
5:53 PM 37.0 °F 28.9 °F 28.9 °F 73% 30.03 in 10.0 mi ENE 12.7 mph - N/A   Overcast
6:53 PM 37.0 °F 30.4 °F 30.0 °F 76% 30.03 in 10.0 mi ENE 9.2 mph - N/A   Overcast
7:53 PM 37.9 °F 29.6 °F 30.0 °F 73% 30.01 in 10.0 mi ENE 13.8 mph - N/A   Overcast
8:53 PM 37.9 °F 30.0 °F 30.0 °F 73% 29.99 in 10.0 mi ENE 12.7 mph - N/A   Overcast
9:53 PM 39.0 °F 31.4 °F 30.9 °F 73% 29.96 in 10.0 mi East 12.7 mph - N/A   Overcast
10:53 PM 39.0 °F 34.0 °F 32.0 °F 76% 29.95 in 10.0 mi East 6.9 mph - N/A   Overcast
11:53 PM 39.9 °F 34.5 °F 33.1 °F 77% 29.92 in 10.0 mi East 8.1 mph - N/A   Overcast